This is the latest recevied weather packets stored in our database for station/object DG6YGE-6. If no packets are shown the sender has not sent any weather packets the latest 10 day(s).
| Time | Temp. | Humidity | Pressure | Rain* | Wind** | Luminosity | Snow |
|---|---|---|---|---|---|---|---|
| 1777793352 | 15.56° C | 94% | 1010.9 hPa | 0 mm | - | 403 W/m² | - |
| 1777792752 | 15° C | 94% | 1010.7 hPa | 0 mm | - | 327 W/m² | - |
| 1777792152 | 14.44° C | 94% | 1010.7 hPa | 0 mm | - | 207 W/m² | - |
| 1777791553 | 14.44° C | 93% | 1010.6 hPa | 0 mm | - | 236 W/m² | - |
| 1777790952 | 14.44° C | 94% | 1010.5 hPa | 0 mm | - | 328 W/m² | - |
| 1777790352 | 13.89° C | 94% | 1010.6 hPa | 0 mm | - | 136 W/m² | - |
| 1777789752 | 13.89° C | 93% | 1010.6 hPa | 0 mm | - | 221 W/m² | - |
| 1777789153 | 13.89° C | 93% | 1010.7 hPa | 0 mm | - | 222 W/m² | - |
| 1777788552 | 13.89° C | 94% | 1010.6 hPa | 0 mm | - | 142 W/m² | - |
| 1777787952 | 13.89° C | 94% | 1010.7 hPa | 0 mm | - | 98 W/m² | - |
| 1777787352 | 13.89° C | 94% | 1010.7 hPa | 0 mm | - | 95 W/m² | - |
| 1777786753 | 13.33° C | 94% | 1010.7 hPa | 0 mm | - | 90 W/m² | - |
| 1777786152 | 13.33° C | 94% | 1010.8 hPa | 0 mm | - | 103 W/m² | - |
| 1777785552 | 13.33° C | 94% | 1011 hPa | 0 mm | - | 110 W/m² | - |
| 1777784952 | 13.33° C | 94% | 1011 hPa | 0 mm | - | 82 W/m² | - |
| 1777784352 | 12.78° C | 93% | 1011.1 hPa | 0 mm | - | 88 W/m² | - |
| 1777783753 | 12.78° C | 93% | 1011.3 hPa | 0 mm | - | 58 W/m² | - |
| 1777783152 | 12.78° C | 93% | 1011.3 hPa | 0 mm | - | 39 W/m² | - |
| 1777782552 | 12.78° C | 93% | 1011.4 hPa | 0 mm | - | 23 W/m² | - |
| 1777781952 | 12.78° C | 93% | 1011.4 hPa | 0 mm | - | 11 W/m² | - |
| 1777781352 | 12.78° C | 93% | 1011.4 hPa | 0 mm | - | 5 W/m² | - |
| 1777780753 | 12.22° C | 93% | 1011.4 hPa | 0 mm | - | 0 W/m² | - |
| 1777780153 | 12.22° C | 92% | 1011.4 hPa | 0 mm | - | 0 W/m² | - |
| 1777779552 | 12.22° C | 92% | 1011.3 hPa | 0 mm | - | 0 W/m² | - |
| 1777778952 | 12.22° C | 92% | 1011.2 hPa | 0 mm | - | 0 W/m² | - |
* Rain latest hour (hover to see other rain measurements)
** Current wind speed in m/s (hover to see current wind gust speed)